Terminal Aerodrome Forecast
Issued by NWS

Home | Current Version | Previous Version | Text Only | Print | Product List | Glossary On
Versions: 1 2 3 4 5 6 7 8 9 10 11 12 13 14 15 16
000
FTUS43 KPAH 032258 AAA
TAFCGI
TAF AMD
KCGI 032258Z 0323/0418 VRB04KT P6SM VCTS SCT035CB
     FM040000 01003KT P6SM SCT040 BKN100
     FM040800 34003KT 5SM BR SCT250
      TEMPO 0408/0412 3SM BR SCT002 SCT015=

USA.gov is the U.S. government's official web portal to all federal, state and local government web resources and services.